Terminal Aerodrome Forecast
Issued by NWS Pocatello, ID

Home | Current Version | Previous Version | Text Only | Print | Product List | Glossary On
Versions: 1 2 3 4 5 6 7 8 9 10 11 12
000
FTUS45 KPIH 250900 AAA
TAFBYI
TAF AMD
KBYI 250906Z 2509/2606 26030G45KT 1SM -SN BLSN BKN007 OVC013
     FM251600 27015G25KT 3SM -SN SCT015 OVC025
     FM252000 26012G20KT P6SM VCSH SCT025 OVC040
     FM260200 26011KT P6SM OVC040=

USA.gov is the U.S. government's official web portal to all federal, state and local government web resources and services.